{"data":{"norad_id":63453,"epoch":"2026-05-24T23:52:02.648640Z","epoch_age_seconds":79094,"freshness":"FRESH","line1":"1 63453U 25069W   26144.99447510  .00015100  00000+0  52046-3 0  9995","line2":"2 63453  53.1596 148.3058 0001485  93.9648 266.1522 15.30228445 65085","mean_motion":15.30228445,"eccentricity":0.0001485,"inclination_deg":53.1596,"raan_deg":148.3058,"arg_perigee_deg":93.9648,"mean_anomaly_deg":266.1522,"bstar":0.00052046,"rev_number":6508,"period_min":94.10359640779,"perigee_km":474.11242892206,"apogee_km":476.14784926237,"semimajor_km":6853.2671390922,"source":"CELESTRAK","updated_at":"2026-05-25T13:38:20.002249Z"}}